Time,TemperatureF,DewpointF,PressureIn,WindDirection,WindDirectionDegrees,WindSpeedMPH,WindSpeedGustMPH,Humidity,HourlyPrecipIn,Conditions,Clouds,dailyrainin,SoftwareType,DateUTC
2013-08-25 00:23:00,50.0,47.0,30.21,NNW,346,0.0,0.0,89,0.00,,,0.00,,2013-08-25 03:23:00,
2013-08-25 00:54:00,50.0,47.0,30.21,NNW,346,0.0,0.0,90,0.00,,,0.00,,2013-08-25 03:54:00,
2013-08-25 01:02:00,-999.0,-99.9,30.21,NNW,346,0.0,0.0,-999,-99.99,,,-99.99,,2013-08-25 04:02:00,
2013-08-25 01:25:00,49.0,46.0,30.21,NNW,346,0.0,0.0,89,0.00,,,0.00,,2013-08-25 04:25:00,
2013-08-25 01:54:00,49.0,46.0,30.21,NNW,346,0.0,0.0,90,0.00,,,0.00,,2013-08-25 04:54:00,
2013-08-25 02:23:00,50.0,47.0,30.22,NNW,346,0.0,0.0,90,0.00,,,0.00,,2013-08-25 05:23:00,
2013-08-25 02:52:00,50.0,47.0,30.22,NNW,346,0.0,0.0,90,0.00,,,0.00,,2013-08-25 05:52:00,
2013-08-25 03:22:00,50.0,47.0,30.21,NNW,346,0.0,0.0,89,0.00,,,0.00,,2013-08-25 06:22:00,
2013-08-25 03:52:00,49.0,47.0,30.21,NNW,346,0.0,0.0,92,0.00,,,0.00,,2013-08-25 06:52:00,
2013-08-25 04:22:00,48.0,46.0,30.21,NNW,346,0.0,0.0,94,0.00,,,0.00,,2013-08-25 07:22:00,
2013-08-25 04:52:00,48.0,47.0,30.21,NNW,346,0.0,0.0,96,0.00,,,0.00,,2013-08-25 07:52:00,
2013-08-25 05:21:00,49.0,49.0,30.21,NNW,346,0.0,0.0,99,0.00,,,0.00,,2013-08-25 08:21:00,
2013-08-25 05:52:00,49.0,49.0,30.21,NNW,346,0.0,0.0,100,0.00,,,0.00,,2013-08-25 08:52:00,
2013-08-25 06:22:00,48.0,48.0,30.21,NNW,346,0.0,0.0,100,0.00,,,0.00,,2013-08-25 09:22:00,
2013-08-25 06:55:00,48.0,48.0,30.22,NNW,346,0.0,0.0,100,0.00,,,0.00,,2013-08-25 09:55:00,
2013-08-25 07:53:00,51.0,51.0,30.22,NNW,346,0.0,0.0,100,0.00,,,0.00,,2013-08-25 10:53:00,
2013-08-25 08:22:00,54.0,54.0,30.23,NNW,345,0.0,0.0,100,0.00,,,0.00,,2013-08-25 11:22:00,
2013-08-25 08:52:00,58.0,58.0,30.24,West,273,1.0,3.0,100,0.00,,,0.00,,2013-08-25 11:52:00,
2013-08-25 09:52:00,64.0,62.0,30.24,SW,227,4.0,7.0,92,0.00,,,0.00,,2013-08-25 12:52:00,
2013-08-25 10:22:00,66.0,60.0,30.24,SW,219,5.0,8.0,81,0.00,,,0.00,,2013-08-25 13:22:00,
2013-08-25 10:52:00,68.0,61.0,30.24,SSE,168,5.0,8.0,78,0.00,,,0.00,,2013-08-25 13:52:00,
2013-08-25 11:25:00,70.0,61.0,30.24,South,182,3.0,8.0,74,0.00,,,0.00,,2013-08-25 14:25:00,
2013-08-25 11:52:00,72.0,63.0,30.23,SSW,194,5.0,7.0,74,0.00,,,0.00,,2013-08-25 14:52:00,
2013-08-25 14:53:00,75.0,62.0,30.19,SSW,202,5.0,9.0,63,0.00,,,0.00,,2013-08-25 17:53:00,
2013-08-25 15:22:00,76.0,57.0,30.18,SW,223,5.0,10.0,51,0.00,,,0.00,,2013-08-25 18:22:00,
2013-08-25 15:52:00,76.0,57.0,30.17,SW,217,3.0,9.0,51,0.00,,,0.00,,2013-08-25 18:52:00,
2013-08-25 16:22:00,76.0,56.0,30.17,SSW,195,5.0,9.0,50,0.00,,,0.00,,2013-08-25 19:22:00,
2013-08-25 16:53:00,75.0,54.0,30.17,SW,228,1.0,6.0,48,0.00,,,0.00,,2013-08-25 19:53:00,
2013-08-25 17:23:00,75.0,55.0,30.17,SW,231,2.0,8.0,49,0.00,,,0.00,,2013-08-25 20:23:00,
2013-08-25 17:53:00,73.0,54.0,30.16,SSW,211,4.0,8.0,51,0.00,,,0.00,,2013-08-25 20:53:00,
2013-08-25 19:24:00,70.0,51.0,30.15,NNE,23,1.0,6.0,51,0.00,,,0.00,,2013-08-25 22:24:00,
2013-08-25 19:53:00,69.0,57.0,30.15,ESE,116,3.0,6.0,66,0.00,,,0.00,,2013-08-25 22:53:00,
2013-08-25 20:23:00,66.0,56.0,30.15,SE,125,2.0,3.0,71,0.00,,,0.00,,2013-08-25 23:23:00,
2013-08-25 20:53:00,65.0,58.0,30.16,SE,125,0.0,0.0,78,0.00,,,0.00,,2013-08-25 23:53:00,
2013-08-25 21:52:00,62.0,58.0,30.16,SE,125,0.0,0.0,86,0.00,,,0.00,,2013-08-26 00:52:00,
2013-08-25 22:22:00,60.0,57.0,30.16,SE,125,0.0,0.0,90,0.00,,,0.00,,2013-08-26 01:22:00,
2013-08-25 22:52:00,59.0,57.0,30.15,SE,125,0.0,0.0,92,0.00,,,0.00,,2013-08-26 01:52:00,
2013-08-25 23:22:00,58.0,57.0,30.14,SE,125,0.0,2.0,95,0.00,,,0.00,,2013-08-26 02:22:00,